Location: Larrial
(48.2758°N, 4.5331°W)
Time: 23:00:02
(UTC+00:00)

AAUSAT CUBESAT 2 - Pass Details

Date: 02 December 2021
Orbit: 571 x 586 km, 97.5° (Epoch: 19 January)

Event Time Altitude Azimuth Distance (km) Brightness Sun altitude
Rises 05:16:39 0° 16° (NNE) 2,796 ? -24.5°
Reaches altitude 10° 05:18:51 10° 21° (NNE) 1,895 ? -24.2°
Maximum altitude 05:22:53 55° 100° (E) 697 ? -23.5°
Drops below altitude 10° 05:26:55 10° 179° (S) 1,888 ? -22.8°
Sets 05:29:05 0° 184° (S) 2,784 ? -22.5°
